Wind_Speed
5 5 6 6 6 6 6 6 7 7 7 8 9 10 10 10 11 11 11 11 11 11 11 12 13 13 13 13 13 13 13 13 13 13 14 15 15 15 15 15 17 17 17
5 5 6 7 6 6 6 6 6 7 8 8 8 9 10 10 10 10 11 11 11 11 11 11 12 12 12 11 12 12 12 12 12 12 13 14 15 15 15 16 16 17 18
5 5 6 7 7 7 6 6 7 7 7 8 7 8 9 10 10 10 10 10 10 10 10 11 11 11 11 11 11 12 12 12 12 12 12 13 14 14 15 16 16 17 17
5 5 6 6 6 6 6 6 6 7 7 8 8 8 9 10 10 9 9 9 9 9 9 10 10 11 11 11 11 12 12 12 13 13 13 14 14 15 15 15 16 17 17
4 5 5 5 5 6 6 6 6 6 7 7 7 7 8 8 8 8 8 8 8 8 9 9 9 10 10 11 11 12 12 12 12 12 13 13 14 14 15 15 16 17 17
4 4 4 5 5 5 6 6 6 6 6 6 6 7 7 6 6 7 7 8 8 8 8 8 8 9 10 10 10 10 11 10 11 11 11 12 13 14 15 15 15 15 16
4 3 4 4 4 5 5 6 6 6 5 5 6 6 6 6 7 7 7 7 8 8 8 8 8 9 9 10 10 9 9 9 9 10 11 11 12 13 13 14 14 14 15
4 4 4 4 4 5 5 5 5 5 5 6 6 6 6 6 7 7 7 7 7 7 7 7 7 8 9 8 8 9 9 9 9 10 11 11 11 12 12 13 14 15 15
4 4 4 4 5 5 5 5 5 5 5 5 6 6 6 6 6 6 6 6 7 7 7 7 7 7 8 7 7 8 8 9 10 10 11 11 12 12 13 13 14 15 16
5 4 5 5 5 5 5 5 6 6 6 6 6 6 6 6 6 7 7 7 7 7 7 8 8 8 8 7 7 7 8 9 10 10 11 12 13 13 13 12 13 14 15
5 5 5 6 6 6 6 6 6 6 6 6 6 6 5 6 6 7 7 7 8 8 7 8 8 8 8 7 8 8 9 9 9 10 11 12 13 13 13 12 13 14 14
7 7 6 6 6 6 6 6 6 6 6 6 6 6 6 6 6 6 7 7 8 8 9 9 9 9 8 7 7 8 9 9 10 10 11 11 12 13 14 13 14 14 15
8 8 7 7 7 7 7 7 6 6 6 6 7 7 7 7 7 6 6 7 8 8 8 9 9 9 9 9 9 9 10 10 11 11 12 13 13 14 15 14 14 15 16
8 9 8 8 8 8 8 7 7 7 7 7 7 8 8 7 7 7 7 7 8 8 8 8 9 8 9 9 10 11 11 11 12 12 12 13 13 14 15 16 17 17 17
9 9 9 9 8 8 8 8 7 7 7 7 8 9 9 8 8 8 9 8 8 9 9 9 10 10 10 10 11 12 12 12 13 13 14 14 15 16 16 17 17 18 19
10 9 9 9 9 9 8 8 8 8 8 8 9 9 9 9 10 10 10 10 10 10 10 10 10 10 11 11 12 13 13 14 14 15 15 16 17 17 17 18 19 20 21
9 9 10 10 10 10 10 10 10 10 10 10 10 10 10 10 11 11 11 10 10 10 10 10 11 11 11 12 13 14 15 16 16 17 17 18 18 19 19 20 21 22 23
9 9 10 10 10 10 11 11 11 11 11 11 11 11 11 11 11 11 12 12 11 12 12 12 12 12 13 14 15 15 16 16 16 17 18 19 19 20 21 22 23 23 25
10 10 10 11 11 11 11 12 12 12 12 12 12 12 12 13 12 12 13 13 13 13 13 13 13 14 14 15 16 16 16 17 17 18 19 20 21 22 23 24 24 25 26
11 11 11 12 12 12 12 13 13 13 13 13 13 13 13 14 14 14 14 14 14 14 14 14 14 15 16 16 17 17 18 19 19 20 21 21 22 23 24 25 25 26 27
12 12 13 13 13 13 14 14 14 14 14 14 14 14 14 15 15 16 16 16 17 16 16 16 16 16 17 17 18 19 20 20 21 21 22 23 23 24 25 26 26 27 28
13 13 14 15 15 16 16 15 15 16 15 15 15 15 16 17 17 18 18 18 18 18 18 18 19 19 18 19 20 20 21 22 22 23 23 24 24 25 26 27 27 28 29
14 14 15 15 16 16 16 16 16 17 16 16 16 17 17 18 19 19 19 19 19 19 19 20 20 20 20 21 21 22 22 23 24 24 24 25 25 26 27 28 29 30 30
14 15 15 16 16 17 17 17 17 17 17 17 18 18 19 19 20 20 20 20 21 21 22 22 22 22 22 22 23 23 23 23 24 24 25 26 27 28 29 29 30 30 30
16 16 16 16 16 17 18 19 19 19 19 19 19 20 20 20 20 20 21 21 21 22 23 24 24 24 24 24 24 24 24 24 24 25 26 26 27 28 29 29 29 29 30
18 18 17 18 18 18 19 20 20 20 21 21 21 21 21 21 21 22 22 23 22 22 23 24 24 25 25 25 25 25 25 25 26 26 27 27 28 29 29 29 29 30 30
Wind_Direction
260 256 258 255 260 262 265 265 258 260 267 266 266 269 269 266 263 262 263 265 264 265 266 265 262 261 266 264 265 268 267 266 266 256 249 250 254 257 260 263 266 264 265
264 266 268 267 264 264 264 262 262 267 269 273 274 274 272 271 268 267 268 267 268 267 266 265 264 261 262 263 266 267 266 266 263 255 251 252 255 258 261 264 266 265 265
269 271 272 270 270 271 269 260 262 270 272 274 279 278 276 271 271 273 271 269 267 266 267 267 266 265 263 263 265 267 266 266 263 259 257 258 260 260 262 264 267 268 266
267 271 279 277 272 276 276 269 268 267 268 273 276 277 276 274 272 272 269 268 268 268 267 265 265 264 265 264 268 269 268 266 264 262 260 261 263 262 264 268 269 269 267
271 274 278 282 278 279 277 276 277 273 271 274 274 276 279 278 274 271 270 270 270 271 271 270 265 265 264 266 271 272 270 271 267 264 264 264 264 265 268 269 271 270 266
274 274 278 281 285 287 286 283 284 282 280 283 283 282 286 284 285 279 274 271 270 275 278 277 273 267 270 269 271 273 272 272 269 266 265 266 266 267 268 270 271 270 271
282 277 278 283 286 291 287 282 283 282 284 288 290 289 288 284 283 283 279 273 272 276 280 281 280 277 276 273 273 270 271 274 272 271 272 272 271 271 273 276 279 280 279
284 281 273 277 282 288 289 290 293 288 290 291 293 292 286 283 280 278 278 276 276 281 279 279 281 282 279 279 278 275 275 277 276 276 276 276 276 276 277 280 280 281 282
279 279 271 274 283 286 288 290 296 293 295 295 295 295 289 283 280 278 280 280 278 277 277 277 280 282 280 280 279 278 276 279 278 276 276 277 279 281 283 286 286 281 277
274 274 273 274 281 284 285 286 293 299 298 298 302 295 291 288 284 284 284 279 276 273 272 271 275 276 279 276 277 280 283 284 282 282 282 281 282 283 289 293 288 285 281
272 269 272 274 279 281 281 287 295 301 303 296 295 292 294 292 289 285 283 278 277 274 273 274 276 278 281 279 279 284 289 291 289 287 286 285 285 286 291 291 291 288 288
271 270 271 275 276 280 286 290 291 296 295 293 295 292 291 292 290 290 286 285 286 282 279 276 275 278 281 284 287 289 291 293 292 294 293 293 294 293 296 295 295 293 293
270 267 267 272 274 279 287 291 292 296 290 289 289 292 291 289 285 282 283 287 289 288 285 279 274 277 280 281 284 287 289 290 292 293 294 296 297 297 296 297 297 297 296
270 267 265 268 272 278 285 291 293 297 294 288 286 287 284 282 280 284 287 289 288 285 282 282 284 285 287 289 293 292 291 292 294 294 295 297 298 298 297 297 298 300 300
275 269 265 265 269 272 280 288 294 293 295 295 290 289 284 277 277 276 280 281 284 283 283 283 283 283 285 289 293 295 294 292 293 294 295 295 296 297 298 298 298 300 302
280 272 267 265 265 267 274 282 287 286 289 295 291 290 286 281 275 276 277 278 282 283 286 286 286 285 287 290 291 291 290 291 292 294 295 296 296 297 298 298 299 299 300
286 278 272 267 267 267 273 277 282 283 284 289 288 288 290 289 281 279 278 280 283 283 285 285 286 288 292 293 293 291 291 290 290 291 293 295 296 297 299 300 300 301 301
288 281 275 272 272 271 273 275 278 280 284 286 286 285 288 288 286 285 282 283 283 284 285 285 287 290 292 293 294 293 293 293 293 293 295 296 297 297 298 300 301 302 303
284 279 276 275 274 275 273 273 275 277 282 281 280 279 282 283 283 286 286 286 285 285 284 284 285 288 290 292 294 294 293 294 294 295 296 297 298 298 299 301 301 302 303
281 277 276 275 273 274 273 273 275 277 278 277 277 277 279 280 279 281 284 285 285 285 285 286 287 287 289 292 294 295 295 295 296 297 298 298 298 299 300 301 302 302 304
281 280 277 273 273 273 273 274 276 279 280 279 277 276 278 280 280 280 282 284 283 283 283 285 288 291 291 292 294 295 295 296 297 298 298 298 299 300 300 301 302 303 305
281 281 278 273 272 273 273 276 279 280 280 279 279 278 278 278 280 281 283 283 282 282 283 285 287 289 291 295 296 297 297 297 296 296 297 298 299 300 302 303 304 304 304
280 280 278 276 274 275 276 277 277 277 279 280 280 279 278 278 280 282 283 282 281 281 283 286 288 289 291 293 296 298 297 297 297 296 296 298 299 300 301 303 304 305 305
282 282 279 277 276 276 277 278 278 277 279 281 282 280 279 280 281 282 282 281 282 282 283 284 286 288 289 291 294 296 297 297 297 298 299 301 301 302 302 302 303 305 305
282 282 280 278 276 277 277 278 277 278 279 280 280 281 280 281 281 282 284 284 284 284 283 284 285 287 288 289 292 294 296 297 299 299 299 302 303 304 305 304 303 304 306
279 279 278 278 277 279 279 278 276 277 278 279 281 281 280 280 281 283 285 285 286 286 287 286 285 286 288 289 291 293 295 296 298 298 299 302 304 304 306 306 305 304 304
Height
5859 5859 5859 5859 5859 5859 5859 5859 5859 5859 5859 5858 5858 5858 5859 5858 5858 5858 5858 5858 5858 5858 5858 5858 5859 5859 5859 5859 5859 5859 5859 5858 5856 5855 5857 5860 5862 5863 5864 5864 5864 5865 5865
5857 5858 5857 5857 5857 5857 5857 5857 5857 5857 5857 5857 5856 5856 5856 5856 5856 5856 5856 5856 5856 5856 5856 5856 5856 5857 5857 5857 5857 5857 5856 5856 5855 5854 5855 5857 5859 5860 5860 5861 5861 5861 5861
5856 5856 5856 5856 5856 5856 5856 5856 5856 5856 5855 5855 5855 5855 5854 5854 5854 5854 5854 5854 5854 5853 5853 5854 5854 5854 5854 5854 5854 5854 5854 5854 5854 5854 5854 5855 5856 5857 5857 5857 5857 5857 5857
5855 5855 5855 5855 5855 5855 5855 5855 5855 5854 5854 5853 5853 5853 5853 5852 5852 5852 5852 5852 5851 5851 5851 5851 5852 5852 5852 5852 5852 5852 5852 5851 5851 5852 5852 5853 5853 5853 5854 5854 5853 5853 5852
5854 5854 5854 5854 5853 5853 5853 5853 5853 5853 5852 5852 5852 5851 5851 5850 5850 5850 5850 5850 5850 5850 5850 5849 5849 5849 5849 5849 5849 5849 5849 5849 5849 5849 5850 5850 5850 5850 5850 5850 5850 5849 5849
5853 5853 5853 5853 5852 5852 5852 5852 5852 5851 5851 5851 5850 5850 5849 5849 5848 5848 5848 5848 5848 5848 5848 5847 5847 5847 5847 5847 5847 5847 5846 5846 5847 5847 5847 5847 5847 5847 5847 5846 5846 5845 5845
5852 5852 5852 5851 5851 5851 5851 5851 5850 5850 5850 5849 5849 5848 5848 5847 5847 5847 5846 5846 5846 5846 5846 5846 5845 5845 5845 5844 5844 5844 5844 5844 5844 5844 5844 5844 5844 5844 5843 5843 5842 5842 5841
5851 5851 5851 5850 5850 5850 5850 5849 5849 5849 5848 5848 5847 5847 5847 5847 5846 5845 5845 5845 5844 5844 5844 5844 5844 5843 5843 5842 5842 5842 5842 5842 5842 5842 5842 5841 5841 5841 5840 5840 5839 5838 5837
5850 5850 5850 5849 5849 5849 5848 5848 5848 5847 5847 5846 5846 5846 5845 5844 5844 5844 5843 5843 5843 5843 5842 5842 5842 5841 5841 5841 5840 5840 5840 5840 5839 5839 5839 5839 5838 5838 5837 5835 5833 5832 5832
5849 5849 5849 5848 5848 5848 5847 5847 5847 5846 5845 5845 5844 5844 5844 5843 5843 5842 5842 5841 5841 5841 5841 5840 5840 5839 5839 5839 5839 5838 5837 5837 5837 5837 5836 5836 5835 5835 5833 5830 5829 5828 5828
5847 5847 5847 5847 5847 5846 5846 5846 5845 5845 5844 5843 5843 5842 5842 5841 5841 5841 5840 5839 5839 5839 5839 5838 5838 5837 5837 5837 5836 5836 5835 5835 5834 5834 5834 5833 5832 5831 5830 5828 5827 5826 5825
5845 5845 5846 5845 5845 5845 5845 5844 5844 5843 5842 5842 5841 5841 5840 5840 5839 5839 5838 5838 5837 5837 5837 5836 5836 5835 5835 5835 5834 5834 5833 5833 5832 5832 5831 5830 5829 5828 5827 5825 5824 5823 5823
5843 5843 5844 5844 5844 5843 5843 5843 5842 5842 5841 5840 5840 5839 5839 5838 5838 5837 5837 5836 5836 5835 5835 5834 5834 5833 5833 5833 5832 5832 5831 5831 5830 5829 5828 5827 5826 5825 5824 5823 5821 5820 5819
5841 5841 5842 5842 5842 5842 5841 5841 5840 5840 5839 5839 5838 5838 5837 5836 5836 5835 5835 5835 5834 5834 5833 5833 5832 5831 5831 5831 5830 5829 5828 5828 5827 5826 5826 5824 5823 5822 5821 5819 5818 5817 5815
5839 5839 5839 5839 5839 5839 5839 5839 5838 5838 5837 5837 5836 5835 5835 5834 5834 5833 5833 5833 5833 5832 5831 5830 5829 5829 5828 5828 5827 5826 5826 5825 5824 5823 5822 5821 5820 5818 5817 5815 5814 5812 5811
5836 5836 5836 5837 5837 5837 5837 5837 5836 5836 5835 5834 5834 5833 5832 5832 5831 5831 5830 5830 5830 5829 5828 5828 5827 5826 5826 5825 5824 5823 5822 5821 5820 5819 5818 5817 5816 5814 5813 5811 5809 5808 5806
5833 5833 5834 5834 5834 5834 5834 5834 5834 5833 5833 5832 5831 5831 5830 5829 5829 5828 5828 5827 5827 5826 5826 5825 5824 5823 5823 5822 5821 5820 5819 5817 5816 5815 5814 5813 5811 5810 5808 5806 5804 5802 5800
5830 5830 5831 5831 5831 5831 5831 5831 5831 5831 5830 5829 5829 5828 5828 5827 5826 5826 5825 5824 5824 5823 5823 5822 5821 5820 5819 5818 5817 5816 5814 5813 5812 5810 5809 5808 5806 5805 5803 5801 5799 5796 5794
5827 5828 5828 5828 5828 5828 5828 5828 5827 5827 5827 5826 5826 5825 5824 5824 5823 5823 5822 5821 5820 5820 5819 5818 5817 5816 5815 5814 5813 5811 5810 5808 5807 5806 5804 5803 5801 5799 5797 5795 5793 5790 5787
5824 5824 5824 5824 5824 5824 5824 5824 5824 5823 5823 5822 5822 5821 5821 5820 5820 5819 5819 5818 5817 5816 5815 5814 5813 5812 5811 5810 5808 5807 5805 5804 5802 5801 5799 5797 5795 5793 5791 5789 5786 5783 5780
5821 5821 5821 5821 5820 5820 5820 5820 5820 5819 5819 5818 5817 5817 5816 5816 5815 5815 5814 5813 5812 5812 5811 5810 5809 5808 5806 5805 5804 5802 5800 5798 5797 5795 5793 5791 5789 5787 5784 5782 5779 5776 5773
5817 5817 5816 5816 5816 5816 5816 5815 5815 5815 5814 5814 5813 5813 5812 5812 5811 5810 5809 5809 5808 5807 5806 5805 5804 5803 5801 5800 5798 5796 5795 5793 5791 5790 5787 5785 5782 5780 5777 5775 5771 5768 5765
5813 5812 5812 5811 5811 5811 5811 5811 5810 5810 5810 5809 5808 5808 5807 5807 5806 5805 5804 5803 5802 5801 5801 5800 5799 5797 5796 5794 5793 5791 5789 5787 5785 5783 5780 5778 5775 5773 5770 5767 5764 5760 5757
5808 5807 5807 5806 5806 5806 5806 5806 5805 5805 5805 5804 5803 5803 5802 5801 5800 5799 5798 5797 5796 5795 5794 5794 5793 5791 5790 5788 5786 5785 5782 5780 5778 5776 5773 5771 5768 5766 5762 5759 5755 5752 5748
5803 5802 5802 5801 5801 5801 5800 5800 5800 5799 5799 5798 5798 5797 5796 5795 5794 5793 5792 5791 5790 5789 5787 5787 5786 5784 5783 5781 5779 5778 5776 5774 5772 5769 5766 5764 5761 5758 5755 5751 5747 5744 5740
5797 5797 5796 5796 5795 5795 5794 5794 5794 5793 5793 5793 5792 5791 5789 5789 5788 5787 5786 5784 5783 5782 5781 5779 5778 5777 5776 5774 5772 5771 5769 5766 5764 5762 5759 5756 5754 5750 5748 5744 5740 5736 5732